Regional Weather Roundup
Issued by NWS

Home | Current Version | Previous Version | Graphics & Text | Print | Product List | Glossary On
Versions: 1 2 3 4 5 6 7 8 9 10 11 12 13 14 15 16 17 18 19 20 21 22 23 24 25 26 27 28 29 30 31 32 33 34 35 36 37 38 39 40 41 42 43 44 45 46 47 48 49 50
000
ASUS43 KLSX 022259
RWRMO

WEATHER SUMMARY FOR MISSOURI
NATIONAL WEATHER SERVICE SPRINGFIELD MO
600 PM CDT TUE SEP 02 2014

NOTE: "FAIR" INDICATES FEW OR NO CLOUDS BELOW 12,000 FEET WITH NO
       SIGNIFICANT WEATHER AND/OR OBSTRUCTIONS TO VISIBILITY.
       CURRENT SKY AND/OR WEATHER CONDITIONS ARE NOT AVAILABLE FOR
       CHILLICOTHE AND FARMINGTON.

MOZ001>031-035>038-043-044-053-054-030000-
...NORTHERN AND WESTERN MISSOURI...

CITY           SKY/WX    TMP DP  RH WIND       PRES   REMARKS
KANSAS CTY INT MOSUNNY   80  68  66 S8        29.95S
KANSAS C DTWN  SUNNY     83  66  56 VRB6      29.93F
LEE`S SUMMIT   SUNNY     80  69  69 SW3       29.95S
ST JOSEPH      SUNNY     84  64  50 CALM      29.93F
KIRKSVILLE     MOSUNNY   78  65  63 W5        29.95S

$$
MOZ066>068-077>081-088>096-101>105-030000-
...SOUTHWEST MISSOURI...

CITY           SKY/WX    TMP DP  RH WIND       PRES   REMARKS
SPRINGFIELD    MOSUNNY   81  65  58 NE6       29.97S
JOPLIN         SUNNY     79  67  66 SW5       29.96S

$$
MOZ032>034-039>042-045>050-055>058-069>072-030000-
...CENTRAL MISSOURI...

CITY           SKY/WX    TMP DP  RH WIND       PRES   REMARKS
COLUMBIA       MOSUNNY   81  69  67 NW5       29.96S
JEFFERSON CITY MOSUNNY   82  69  64 W5        29.94S
ROLLA          PTSUNNY   78  66  66 NW3       29.96S
SEDALIA        PTSUNNY   80  70  71 W3        29.96F
OSAGE BEACH    MOSUNNY   79  66  65 NW6       29.96F

$$
MOZ051-052-059>065-030000-
...EAST CENTRAL MISSOURI...

CITY           SKY/WX    TMP DP  RH WIND       PRES   REMARKS
ST LOUIS INTL  PTSUNNY   82  68  62 NW6       29.94F
SPIRIT OF STL  PTSUNNY   81  67  62 NW5       29.93F
ST CHARLES     MOSUNNY   81  67  62 NW5       29.92F

$$
MOZ072>076-082>087-097>100-106>115-030000-
...SOUTH CENTRAL AND SOUTHEAST MISSOURI...

CITY           SKY/WX    TMP DP  RH WIND       PRES   REMARKS
CAPE GIRARDEAU CLOUDY    81  70  69 CALM      29.93S
FARMINGTON     MOSUNNY   77  68  73 NW8       29.97F
POPLAR BLUFF   PTSUNNY   82  64  54 NW5       29.94R
WEST PLAINS    CLOUDY    78  65  63 N7        29.99R

$$



USA.gov is the U.S. government's official web portal to all federal, state and local government web resources and services.